Year,Month,Day,Hour,Minute,Value (Times are PST for temperature in C)
2013,07,16,00,00,20.60
2013,07,16,00,01,20.60
2013,07,16,00,02,20.60
2013,07,16,00,03,20.70
2013,07,16,00,04,20.70
2013,07,16,00,05,20.70
2013,07,16,00,06,20.70
2013,07,16,00,07,20.70
2013,07,16,00,08,20.70
2013,07,16,00,09,20.60
2013,07,16,00,10,20.60
2013,07,16,00,11,20.70
2013,07,16,00,12,20.70
2013,07,16,00,13,20.70
2013,07,16,00,14,20.60
2013,07,16,00,15,20.60
2013,07,16,00,16,20.60
2013,07,16,00,17,20.60
2013,07,16,00,18,20.60
2013,07,16,00,19,20.60
2013,07,16,00,20,20.60
2013,07,16,00,21,20.70
2013,07,16,00,22,20.60
2013,07,16,00,23,20.40
2013,07,16,00,24,20.20
2013,07,16,00,25,19.90
2013,07,16,00,26,19.70
2013,07,16,00,27,19.50
2013,07,16,00,28,19.20
2013,07,16,00,29,19.00
2013,07,16,00,30,18.90
2013,07,16,00,31,18.80
2013,07,16,00,32,18.70
2013,07,16,00,33,18.60
2013,07,16,00,34,18.50
2013,07,16,00,35,18.50
2013,07,16,00,36,18.40
2013,07,16,00,37,18.40
2013,07,16,00,38,18.30
2013,07,16,00,39,18.30
2013,07,16,00,40,18.30
2013,07,16,00,41,18.30
2013,07,16,00,42,18.20
2013,07,16,00,43,18.20
2013,07,16,00,44,18.20
2013,07,16,00,45,18.20
2013,07,16,00,46,18.20
2013,07,16,00,47,18.20
2013,07,16,00,48,18.10
2013,07,16,00,49,18.10
2013,07,16,00,50,18.20
2013,07,16,00,51,18.30
2013,07,16,00,52,18.30
2013,07,16,00,53,18.40
2013,07,16,00,54,18.50
2013,07,16,00,55,18.60
2013,07,16,00,56,18.60
2013,07,16,00,57,18.60
2013,07,16,00,58,18.60
2013,07,16,00,59,18.60
2013,07,16,01,00,18.60
2013,07,16,01,01,18.60
2013,07,16,01,02,18.60
2013,07,16,01,03,18.60
2013,07,16,01,04,18.60
2013,07,16,01,05,18.60
2013,07,16,01,06,18.60
2013,07,16,01,07,18.60
2013,07,16,01,08,18.60
2013,07,16,01,09,18.60
2013,07,16,01,10,18.60
2013,07,16,01,11,18.70
2013,07,16,01,12,18.80
2013,07,16,01,13,18.90
2013,07,16,01,14,19.00
2013,07,16,01,15,19.10
2013,07,16,01,16,19.10
2013,07,16,01,17,19.20
2013,07,16,01,18,19.30
2013,07,16,01,19,19.30
2013,07,16,01,20,19.30
2013,07,16,01,21,19.40
2013,07,16,01,22,19.40
2013,07,16,01,23,19.40
2013,07,16,01,24,19.40
2013,07,16,01,25,19.50
2013,07,16,01,26,19.60
2013,07,16,01,27,19.60
2013,07,16,01,28,19.60
2013,07,16,01,29,19.60
2013,07,16,01,30,19.60
2013,07,16,01,31,19.60
2013,07,16,01,32,19.60
2013,07,16,01,33,19.70
2013,07,16,01,34,19.70
2013,07,16,01,35,19.80
2013,07,16,01,36,19.90
2013,07,16,01,37,19.90
2013,07,16,01,38,19.90
2013,07,16,01,39,19.90
2013,07,16,01,40,19.90
2013,07,16,01,41,19.90
2013,07,16,01,42,19.90
2013,07,16,01,43,19.90
2013,07,16,01,44,20.00
2013,07,16,01,45,20.00
2013,07,16,01,46,20.00
2013,07,16,01,47,20.00
2013,07,16,01,48,20.10
2013,07,16,01,49,20.10
2013,07,16,01,50,20.20
2013,07,16,01,51,20.20
2013,07,16,01,52,20.30
2013,07,16,01,53,20.30
2013,07,16,01,54,20.30
2013,07,16,01,55,20.30
2013,07,16,01,56,20.30
2013,07,16,01,57,20.30
2013,07,16,01,58,20.30
2013,07,16,01,59,20.20
2013,07,16,02,00,20.20
2013,07,16,02,01,20.20
2013,07,16,02,02,20.20
2013,07,16,02,03,20.20
2013,07,16,02,04,20.10
2013,07,16,02,05,20.10
2013,07,16,02,06,20.10
2013,07,16,02,07,20.10
2013,07,16,02,08,20.10
2013,07,16,02,09,20.20
2013,07,16,02,10,20.20
2013,07,16,02,11,20.20
2013,07,16,02,12,20.20
2013,07,16,02,13,20.20
2013,07,16,02,14,20.20
2013,07,16,02,15,20.20
2013,07,16,02,16,20.20
2013,07,16,02,17,20.20
2013,07,16,02,18,20.20
2013,07,16,02,19,20.30
2013,07,16,02,20,20.30
2013,07,16,02,21,20.20
2013,07,16,02,22,20.20
2013,07,16,02,23,20.20
2013,07,16,02,24,20.20
2013,07,16,02,25,20.20
2013,07,16,02,26,20.20
2013,07,16,02,27,20.10
2013,07,16,02,28,20.10
2013,07,16,02,29,20.10
2013,07,16,02,30,20.00
2013,07,16,02,31,20.00
2013,07,16,02,32,20.00
2013,07,16,02,33,20.00
2013,07,16,02,34,20.00
2013,07,16,02,35,20.00
2013,07,16,02,36,20.00
2013,07,16,02,37,20.00
2013,07,16,02,38,20.00
2013,07,16,02,39,20.00
2013,07,16,02,40,20.00
2013,07,16,02,41,20.00
2013,07,16,02,42,20.00
2013,07,16,02,43,20.00
2013,07,16,02,44,19.90
2013,07,16,02,45,19.90
2013,07,16,02,46,19.90
2013,07,16,02,47,19.90
2013,07,16,02,48,19.90
2013,07,16,02,49,19.90
2013,07,16,02,50,20.00
2013,07,16,02,51,20.00
2013,07,16,02,52,20.00
2013,07,16,02,53,20.00
2013,07,16,02,54,20.00
2013,07,16,02,55,20.00
2013,07,16,02,56,20.00
2013,07,16,02,57,20.00
2013,07,16,02,58,20.00
2013,07,16,02,59,20.00
2013,07,16,03,00,20.00
2013,07,16,03,01,19.90
2013,07,16,03,02,19.90
2013,07,16,03,03,19.90
2013,07,16,03,04,19.90
2013,07,16,03,05,19.90
2013,07,16,03,06,19.90
2013,07,16,03,07,19.90
2013,07,16,03,08,19.90
2013,07,16,03,09,19.90
2013,07,16,03,10,19.90
2013,07,16,03,11,19.90
2013,07,16,03,12,19.90
2013,07,16,03,13,19.80
2013,07,16,03,14,19.80
2013,07,16,03,15,19.80
2013,07,16,03,16,19.80
2013,07,16,03,17,19.80
2013,07,16,03,18,19.80
2013,07,16,03,19,19.80
2013,07,16,03,20,19.70
2013,07,16,03,21,19.70
2013,07,16,03,22,19.70
2013,07,16,03,23,19.70
2013,07,16,03,24,19.70
2013,07,16,03,25,19.70
2013,07,16,03,26,19.80
2013,07,16,03,27,19.80
2013,07,16,03,28,19.80
2013,07,16,03,29,19.80
2013,07,16,03,30,19.90
2013,07,16,03,31,19.90
2013,07,16,03,32,19.90
2013,07,16,03,33,19.90
2013,07,16,03,34,19.90
2013,07,16,03,35,19.90
2013,07,16,03,36,19.80
2013,07,16,03,37,19.80
2013,07,16,03,38,19.80
2013,07,16,03,39,19.80
2013,07,16,03,40,19.80
2013,07,16,03,41,19.80
2013,07,16,03,42,19.80
2013,07,16,03,43,19.80
2013,07,16,03,44,19.80
2013,07,16,03,45,19.70
2013,07,16,03,46,19.70
2013,07,16,03,47,19.60
2013,07,16,03,48,19.60
2013,07,16,03,49,19.60
2013,07,16,03,50,19.60
2013,07,16,03,51,19.60
2013,07,16,03,52,19.60
2013,07,16,03,53,19.60
2013,07,16,03,54,19.60
2013,07,16,03,55,19.60
2013,07,16,03,56,19.60
2013,07,16,03,57,19.50
2013,07,16,03,58,19.50
2013,07,16,03,59,19.40
2013,07,16,04,00,19.40
2013,07,16,04,01,19.40
2013,07,16,04,02,19.40
2013,07,16,04,03,19.40
2013,07,16,04,04,19.40
2013,07,16,04,05,19.40
2013,07,16,04,06,19.40
2013,07,16,04,07,19.40
2013,07,16,04,08,19.40
2013,07,16,04,09,19.50
2013,07,16,04,10,19.50
2013,07,16,04,11,19.50
2013,07,16,04,12,19.50
2013,07,16,04,13,19.50
2013,07,16,04,14,19.50
2013,07,16,04,15,19.50
2013,07,16,04,16,19.50
2013,07,16,04,17,19.50
2013,07,16,04,18,19.50
2013,07,16,04,19,19.50
2013,07,16,04,20,19.50
2013,07,16,04,21,19.50
2013,07,16,04,22,19.50
2013,07,16,04,23,19.50
2013,07,16,04,24,19.50
2013,07,16,04,25,19.60
2013,07,16,04,26,19.60
2013,07,16,04,27,19.50
2013,07,16,04,28,19.60
2013,07,16,04,29,19.50
2013,07,16,04,30,19.50
2013,07,16,04,31,19.50
2013,07,16,04,32,19.50
2013,07,16,04,33,19.50
2013,07,16,04,34,19.50
2013,07,16,04,35,19.60
2013,07,16,04,36,19.60
2013,07,16,04,37,19.60
2013,07,16,04,38,19.60
2013,07,16,04,39,19.60
2013,07,16,04,40,19.60
2013,07,16,04,41,19.60
2013,07,16,04,42,19.60
2013,07,16,04,43,19.60
2013,07,16,04,44,19.60
2013,07,16,04,45,19.60
2013,07,16,04,46,19.60
2013,07,16,04,47,19.60
2013,07,16,04,48,19.50
2013,07,16,04,49,19.50
2013,07,16,04,50,19.50
2013,07,16,04,51,19.50
2013,07,16,04,52,19.50
2013,07,16,04,53,19.50
2013,07,16,04,54,19.40
2013,07,16,04,55,19.40
2013,07,16,04,56,19.40
2013,07,16,04,57,19.40
2013,07,16,04,58,19.40
2013,07,16,04,59,19.40
2013,07,16,05,00,19.40
2013,07,16,05,01,19.30
2013,07,16,05,02,19.30
2013,07,16,05,03,19.30
2013,07,16,05,04,19.30
2013,07,16,05,05,19.30
2013,07,16,05,06,19.30
2013,07,16,05,07,19.20
2013,07,16,05,08,19.20
2013,07,16,05,09,19.20
2013,07,16,05,10,19.20
2013,07,16,05,11,19.10
2013,07,16,05,12,19.10
2013,07,16,05,13,19.10
2013,07,16,05,14,19.10
2013,07,16,05,15,19.10
2013,07,16,05,16,19.10
2013,07,16,05,17,19.10
2013,07,16,05,18,19.10
2013,07,16,05,19,19.00
2013,07,16,05,20,19.00
2013,07,16,05,21,19.00
2013,07,16,05,22,19.00
2013,07,16,05,23,19.00
2013,07,16,05,24,19.00
2013,07,16,05,25,19.00
2013,07,16,05,26,18.90
2013,07,16,05,27,19.00
2013,07,16,05,28,19.00
2013,07,16,05,29,19.00
2013,07,16,05,30,19.00
2013,07,16,05,31,19.00
2013,07,16,05,32,19.00
2013,07,16,05,33,18.90
2013,07,16,05,34,18.90
2013,07,16,05,35,18.90
2013,07,16,05,36,18.90
2013,07,16,05,37,18.90
2013,07,16,05,38,18.90
2013,07,16,05,39,18.90
2013,07,16,05,40,18.90
2013,07,16,05,41,18.90
2013,07,16,05,42,18.90
2013,07,16,05,43,18.90
2013,07,16,05,44,18.90
2013,07,16,05,45,18.90
2013,07,16,05,46,18.90
2013,07,16,05,47,18.90
2013,07,16,05,48,19.00
2013,07,16,05,49,19.00
2013,07,16,05,50,19.10
2013,07,16,05,51,19.10
2013,07,16,05,52,19.10
2013,07,16,05,53,19.10
2013,07,16,05,54,19.10
2013,07,16,05,55,19.20
2013,07,16,05,56,19.20
2013,07,16,05,57,19.20
2013,07,16,05,58,19.20
2013,07,16,05,59,19.30
2013,07,16,06,00,19.30
2013,07,16,06,01,19.30
2013,07,16,06,02,19.30
2013,07,16,06,03,19.30
2013,07,16,06,04,19.30
2013,07,16,06,05,19.30
2013,07,16,06,06,19.30
2013,07,16,06,07,19.30
2013,07,16,06,08,19.30
2013,07,16,06,09,19.30
2013,07,16,06,10,19.40
2013,07,16,06,11,19.40
2013,07,16,06,12,19.40
2013,07,16,06,13,19.40
2013,07,16,06,14,19.50
2013,07,16,06,15,19.50
2013,07,16,06,16,19.50
2013,07,16,06,17,19.50
2013,07,16,06,18,19.50
2013,07,16,06,19,19.60
2013,07,16,06,20,19.60
2013,07,16,06,21,19.60
2013,07,16,06,22,19.60
2013,07,16,06,23,19.60
2013,07,16,06,24,19.60
2013,07,16,06,25,19.60
2013,07,16,06,26,19.60
2013,07,16,06,27,19.60
2013,07,16,06,28,19.60
2013,07,16,06,29,19.70
2013,07,16,06,30,19.60
2013,07,16,06,31,19.60
2013,07,16,06,32,19.60
2013,07,16,06,33,19.60
2013,07,16,06,34,19.70
2013,07,16,06,35,19.70
2013,07,16,06,36,19.70
2013,07,16,06,37,19.70
2013,07,16,06,38,19.80
2013,07,16,06,39,19.80
2013,07,16,06,40,19.80
2013,07,16,06,41,19.80
2013,07,16,06,42,19.80
2013,07,16,06,43,19.80
2013,07,16,06,44,19.80
2013,07,16,06,45,19.80
2013,07,16,06,46,19.90
2013,07,16,06,47,19.90
2013,07,16,06,48,19.90
2013,07,16,06,49,19.90
2013,07,16,06,50,19.90
2013,07,16,06,51,19.90
2013,07,16,06,52,19.90
2013,07,16,06,53,20.00
2013,07,16,06,54,20.00
2013,07,16,06,55,20.00
2013,07,16,06,56,20.00
2013,07,16,06,57,20.00
2013,07,16,06,58,20.00
2013,07,16,06,59,20.00
2013,07,16,07,00,20.00
2013,07,16,07,01,20.00
2013,07,16,07,02,20.10
2013,07,16,07,03,20.10
2013,07,16,07,04,20.10
2013,07,16,07,05,20.10
2013,07,16,07,06,20.10
2013,07,16,07,07,20.10
2013,07,16,07,08,20.10
2013,07,16,07,09,20.10
2013,07,16,07,10,20.10
2013,07,16,07,11,20.10
2013,07,16,07,12,20.10
2013,07,16,07,13,20.10
2013,07,16,07,14,20.10
2013,07,16,07,15,20.00
2013,07,16,07,16,20.00
2013,07,16,07,17,20.00
2013,07,16,07,18,20.00
2013,07,16,07,19,20.00
2013,07,16,07,20,20.00
2013,07,16,07,21,20.00
2013,07,16,07,22,20.10
2013,07,16,07,23,20.10
2013,07,16,07,24,20.10
2013,07,16,07,25,20.10
2013,07,16,07,26,20.10
2013,07,16,07,27,20.10
2013,07,16,07,28,20.10
2013,07,16,07,29,20.10
2013,07,16,07,30,20.10
2013,07,16,07,31,20.10
2013,07,16,07,32,20.20
2013,07,16,07,33,20.20
2013,07,16,07,34,20.20
2013,07,16,07,35,20.20
2013,07,16,07,36,20.20
2013,07,16,07,37,20.20
2013,07,16,07,38,20.30
2013,07,16,07,39,20.30
2013,07,16,07,40,20.30
2013,07,16,07,41,20.30
2013,07,16,07,42,20.30
2013,07,16,07,43,20.30
2013,07,16,07,44,20.30
2013,07,16,07,45,20.30
2013,07,16,07,46,20.30
2013,07,16,07,47,20.30
2013,07,16,07,48,20.30
2013,07,16,07,49,20.30
2013,07,16,07,50,20.30
2013,07,16,07,51,20.30
2013,07,16,07,52,20.30
2013,07,16,07,53,20.40
2013,07,16,07,54,20.40
2013,07,16,07,55,20.40
2013,07,16,07,56,20.40
2013,07,16,07,57,20.40
2013,07,16,07,58,20.50
2013,07,16,07,59,20.50
2013,07,16,08,00,20.60
2013,07,16,08,01,20.70
2013,07,16,08,02,20.70
2013,07,16,08,03,20.80
2013,07,16,08,04,20.80
2013,07,16,08,05,20.90
2013,07,16,08,06,20.90
2013,07,16,08,07,20.90
2013,07,16,08,08,20.90
2013,07,16,08,09,20.90
2013,07,16,08,10,20.90
2013,07,16,08,11,21.00
2013,07,16,08,12,21.00
2013,07,16,08,13,20.90
2013,07,16,08,14,20.90
2013,07,16,08,15,20.90
2013,07,16,08,16,20.90
2013,07,16,08,17,20.90
2013,07,16,08,18,20.90
2013,07,16,08,19,20.90
2013,07,16,08,20,21.00
2013,07,16,08,21,21.00
2013,07,16,08,22,21.10
2013,07,16,08,23,21.00
2013,07,16,08,24,21.00
2013,07,16,08,25,21.00
2013,07,16,08,26,21.00
2013,07,16,08,27,20.90
2013,07,16,08,28,21.00
2013,07,16,08,29,21.00
2013,07,16,08,30,21.00
2013,07,16,08,31,21.10
2013,07,16,08,32,21.10
2013,07,16,08,33,21.10
2013,07,16,08,34,21.20
2013,07,16,08,35,21.20
2013,07,16,08,36,21.20
2013,07,16,08,37,21.30
2013,07,16,08,38,21.30
2013,07,16,08,39,21.40
2013,07,16,08,40,21.40
2013,07,16,08,41,21.40
2013,07,16,08,42,21.40
2013,07,16,08,43,21.50
2013,07,16,08,44,21.50
2013,07,16,08,45,21.60
2013,07,16,08,46,21.60
2013,07,16,08,47,21.70
2013,07,16,08,48,21.70
2013,07,16,08,49,21.80
2013,07,16,08,50,21.90
2013,07,16,08,51,21.90
2013,07,16,08,52,21.90
2013,07,16,08,53,22.00
2013,07,16,08,54,22.10
2013,07,16,08,55,22.10
2013,07,16,08,56,22.20
2013,07,16,08,57,22.20
2013,07,16,08,58,22.20
2013,07,16,08,59,22.20
2013,07,16,09,00,22.30
2013,07,16,09,01,22.30
2013,07,16,09,02,22.30
2013,07,16,09,03,22.30
2013,07,16,09,04,22.30
2013,07,16,09,05,22.40
2013,07,16,09,06,22.50
2013,07,16,09,07,22.50
2013,07,16,09,08,22.50
2013,07,16,09,09,22.60
2013,07,16,09,10,22.60
2013,07,16,09,11,22.70
2013,07,16,09,12,22.70
2013,07,16,09,13,22.80
2013,07,16,09,14,22.80
2013,07,16,09,15,22.90
2013,07,16,09,16,23.00
2013,07,16,09,17,23.00
2013,07,16,09,18,23.00
2013,07,16,09,19,22.90
2013,07,16,09,20,22.80
2013,07,16,09,21,22.80
2013,07,16,09,22,22.80
2013,07,16,09,23,22.80
2013,07,16,09,24,22.90
2013,07,16,09,25,23.00
2013,07,16,09,26,23.00
2013,07,16,09,27,23.10
2013,07,16,09,28,23.10
2013,07,16,09,29,23.20
2013,07,16,09,30,23.30
2013,07,16,09,31,23.30
2013,07,16,09,32,23.40
2013,07,16,09,33,23.50
2013,07,16,09,34,23.50
2013,07,16,09,35,23.60
2013,07,16,09,36,23.70
2013,07,16,09,37,23.70
2013,07,16,09,38,23.80
2013,07,16,09,39,23.80
2013,07,16,09,40,23.90
2013,07,16,09,41,24.00
2013,07,16,09,42,24.10
2013,07,16,09,43,24.20
2013,07,16,09,44,24.20
2013,07,16,09,45,24.30
2013,07,16,09,46,24.30
2013,07,16,09,47,24.30
2013,07,16,09,48,24.30
2013,07,16,09,49,24.30
2013,07,16,09,50,24.40
2013,07,16,09,51,24.50
2013,07,16,09,52,24.50
2013,07,16,09,53,24.50
2013,07,16,09,54,24.50
2013,07,16,09,55,24.50
2013,07,16,09,56,24.50
2013,07,16,09,57,24.50
2013,07,16,09,58,24.50
2013,07,16,09,59,24.60
2013,07,16,10,00,24.70
2013,07,16,10,01,24.80
2013,07,16,10,02,24.80
2013,07,16,10,03,24.90
2013,07,16,10,04,25.00
2013,07,16,10,05,25.00
2013,07,16,10,06,24.90
2013,07,16,10,07,24.70
2013,07,16,10,08,24.60
2013,07,16,10,09,24.50
2013,07,16,10,10,24.50
2013,07,16,10,11,24.50
2013,07,16,10,12,24.60
2013,07,16,10,13,24.70
2013,07,16,10,14,24.80
2013,07,16,10,15,24.80
2013,07,16,10,16,24.90
2013,07,16,10,17,25.00
2013,07,16,10,18,25.10
2013,07,16,10,19,25.20
2013,07,16,10,20,25.10
2013,07,16,10,21,25.10
2013,07,16,10,22,25.00
2013,07,16,10,23,25.00
2013,07,16,10,24,25.00
2013,07,16,10,25,25.00
2013,07,16,10,26,25.10
2013,07,16,10,27,25.20
2013,07,16,10,28,25.20
2013,07,16,10,29,25.30
2013,07,16,10,30,25.30
2013,07,16,10,31,25.40
2013,07,16,10,32,25.40
2013,07,16,10,33,25.40
2013,07,16,10,34,25.40
2013,07,16,10,35,25.40
2013,07,16,10,36,25.40
2013,07,16,10,37,25.40
2013,07,16,10,38,25.50
2013,07,16,10,39,25.50
2013,07,16,10,40,25.60
2013,07,16,10,41,25.60
2013,07,16,10,42,25.60
2013,07,16,10,43,25.70
2013,07,16,10,44,25.70
2013,07,16,10,45,25.60
2013,07,16,10,46,25.60
2013,07,16,10,47,25.70
2013,07,16,10,48,25.70
2013,07,16,10,49,25.70
2013,07,16,10,50,25.70
2013,07,16,10,51,25.70
2013,07,16,10,52,25.80
2013,07,16,10,53,25.90
2013,07,16,10,54,26.00
2013,07,16,10,55,26.00
2013,07,16,10,56,26.00
2013,07,16,10,57,26.00
2013,07,16,10,58,26.10
2013,07,16,10,59,26.10
2013,07,16,11,00,26.20
2013,07,16,11,01,26.20
2013,07,16,11,02,26.20
2013,07,16,11,03,26.20
2013,07,16,11,04,26.20
2013,07,16,11,05,26.20
2013,07,16,11,06,26.30
2013,07,16,11,07,26.30
2013,07,16,11,08,26.30
2013,07,16,11,09,26.30
2013,07,16,11,10,26.30
2013,07,16,11,11,26.30
2013,07,16,11,12,26.20
2013,07,16,11,13,26.20
2013,07,16,11,14,26.10
2013,07,16,11,15,26.10
2013,07,16,11,16,26.20
2013,07,16,11,17,26.30
2013,07,16,11,18,26.30
2013,07,16,11,19,26.30
2013,07,16,11,20,26.40
2013,07,16,11,21,26.40
2013,07,16,11,22,26.30
2013,07,16,11,23,26.30
2013,07,16,11,24,26.30
2013,07,16,11,25,26.40
2013,07,16,11,26,26.50
2013,07,16,11,27,26.60
2013,07,16,11,28,26.50
2013,07,16,11,29,26.50
2013,07,16,11,30,26.40
2013,07,16,11,31,26.40
2013,07,16,11,32,26.40
2013,07,16,11,33,26.40
2013,07,16,11,34,26.50
2013,07,16,11,35,26.50
2013,07,16,11,36,26.50
2013,07,16,11,37,26.50
2013,07,16,11,38,26.60
2013,07,16,11,39,26.70
2013,07,16,11,40,26.90
2013,07,16,11,41,26.90
2013,07,16,11,42,26.90
2013,07,16,11,43,26.80
2013,07,16,11,44,26.90
2013,07,16,11,45,26.90
2013,07,16,11,46,27.00
2013,07,16,11,47,26.90
2013,07,16,11,48,26.90
2013,07,16,11,49,26.90
2013,07,16,11,50,26.80
2013,07,16,11,51,26.70
2013,07,16,11,52,26.80
2013,07,16,11,53,26.80
2013,07,16,11,54,26.80
2013,07,16,11,55,26.80
2013,07,16,11,56,26.90
2013,07,16,11,57,27.00
2013,07,16,11,58,27.00
2013,07,16,11,59,26.90
2013,07,16,12,00,26.90
2013,07,16,12,01,26.90
2013,07,16,12,02,26.80
2013,07,16,12,03,26.80
2013,07,16,12,04,26.90
2013,07,16,12,05,26.90
2013,07,16,12,06,26.90
2013,07,16,12,07,27.10
2013,07,16,12,08,27.30
2013,07,16,12,09,27.30
2013,07,16,12,10,27.30
2013,07,16,12,11,27.20
2013,07,16,12,12,27.10
2013,07,16,12,13,27.10
2013,07,16,12,14,27.10
2013,07,16,12,15,27.20
2013,07,16,12,16,27.20
2013,07,16,12,17,27.30
2013,07,16,12,18,27.30
2013,07,16,12,19,27.40
2013,07,16,12,20,27.60
2013,07,16,12,21,27.60
2013,07,16,12,22,27.60
2013,07,16,12,23,27.60
2013,07,16,12,24,27.60
2013,07,16,12,25,27.50
2013,07,16,12,26,27.40
2013,07,16,12,27,27.40
2013,07,16,12,28,27.40
2013,07,16,12,29,27.30
2013,07,16,12,30,27.20
2013,07,16,12,31,27.20
2013,07,16,12,32,27.20
2013,07,16,12,33,27.20
2013,07,16,12,34,27.20
2013,07,16,12,35,27.30
2013,07,16,12,36,27.20
2013,07,16,12,37,27.20
2013,07,16,12,38,27.20
2013,07,16,12,39,27.30
2013,07,16,12,40,27.30
2013,07,16,12,41,27.30
2013,07,16,12,42,27.30
2013,07,16,12,43,27.30
2013,07,16,12,44,27.30
2013,07,16,12,45,27.50
2013,07,16,12,46,27.50
2013,07,16,12,47,27.60
2013,07,16,12,48,27.70
2013,07,16,12,49,27.70
2013,07,16,12,50,27.70
2013,07,16,12,51,27.80
2013,07,16,12,52,27.90
2013,07,16,12,53,28.00
2013,07,16,12,54,28.00
2013,07,16,12,55,28.10
2013,07,16,12,56,28.10
2013,07,16,12,57,28.20
2013,07,16,12,58,28.20
2013,07,16,12,59,28.20
2013,07,16,13,00,28.20
2013,07,16,13,01,28.10
2013,07,16,13,02,28.10
2013,07,16,13,03,28.10
2013,07,16,13,04,28.20
2013,07,16,13,05,28.10
2013,07,16,13,06,28.10
2013,07,16,13,07,28.10
2013,07,16,13,08,28.20
2013,07,16,13,09,28.20
2013,07,16,13,10,28.20
2013,07,16,13,11,28.10
2013,07,16,13,12,28.10
2013,07,16,13,13,28.10
2013,07,16,13,14,28.20
2013,07,16,13,15,28.20
2013,07,16,13,16,28.20
2013,07,16,13,17,28.30
2013,07,16,13,18,28.40
2013,07,16,13,19,28.50
2013,07,16,13,20,28.50
2013,07,16,13,21,28.40
2013,07,16,13,22,28.40
2013,07,16,13,23,28.40
2013,07,16,13,24,28.20
2013,07,16,13,25,28.10
2013,07,16,13,26,28.00
2013,07,16,13,27,28.00
2013,07,16,13,28,28.00
2013,07,16,13,29,28.10
2013,07,16,13,30,28.10
2013,07,16,13,31,28.10
2013,07,16,13,32,28.10
2013,07,16,13,33,28.10
2013,07,16,13,34,28.00
2013,07,16,13,35,27.90
2013,07,16,13,36,27.90
2013,07,16,13,37,27.90
2013,07,16,13,38,27.80
2013,07,16,13,39,27.80
2013,07,16,13,40,27.80
2013,07,16,13,41,27.80
2013,07,16,13,42,27.90
2013,07,16,13,43,27.90
2013,07,16,13,44,28.00
2013,07,16,13,45,28.10
2013,07,16,13,46,28.20
2013,07,16,13,47,28.10
2013,07,16,13,48,28.20
2013,07,16,13,49,28.20
2013,07,16,13,50,28.20
2013,07,16,13,51,28.30
2013,07,16,13,52,28.40
2013,07,16,13,53,28.40
2013,07,16,13,54,28.40
2013,07,16,13,55,28.40
2013,07,16,13,56,28.40
2013,07,16,13,57,28.40
2013,07,16,13,58,28.40
2013,07,16,13,59,28.40
2013,07,16,14,00,28.40
2013,07,16,14,01,28.40
2013,07,16,14,02,28.40
2013,07,16,14,03,28.40
2013,07,16,14,04,28.50
2013,07,16,14,05,28.50
2013,07,16,14,06,28.40
2013,07,16,14,07,28.30
2013,07,16,14,08,28.30
2013,07,16,14,09,28.40
2013,07,16,14,10,28.40
2013,07,16,14,11,28.40
2013,07,16,14,12,28.30
2013,07,16,14,13,28.30
2013,07,16,14,14,28.30
2013,07,16,14,15,28.20
2013,07,16,14,16,28.20
2013,07,16,14,17,28.10
2013,07,16,14,18,28.00
2013,07,16,14,19,27.90
2013,07,16,14,20,27.90
2013,07,16,14,21,27.90
2013,07,16,14,22,27.90
2013,07,16,14,23,27.90
2013,07,16,14,24,27.90
2013,07,16,14,25,27.80
2013,07,16,14,26,27.80
2013,07,16,14,27,27.80
2013,07,16,14,28,27.90
2013,07,16,14,29,27.90
2013,07,16,14,30,27.90
2013,07,16,14,31,27.90
2013,07,16,14,32,28.00
2013,07,16,14,33,28.10
2013,07,16,14,34,28.20
2013,07,16,14,35,28.20
2013,07,16,14,36,28.20
2013,07,16,14,37,28.10
2013,07,16,14,38,28.10
2013,07,16,14,39,28.10
2013,07,16,14,40,28.10
2013,07,16,14,41,28.20
2013,07,16,14,42,28.20
2013,07,16,14,43,28.20
2013,07,16,14,44,28.20
2013,07,16,14,45,28.30
2013,07,16,14,46,28.20
2013,07,16,14,47,28.30
2013,07,16,14,48,28.30
2013,07,16,14,49,28.30
2013,07,16,14,50,28.30
2013,07,16,14,51,28.30
2013,07,16,14,52,28.30
2013,07,16,14,53,28.30
2013,07,16,14,54,28.30
2013,07,16,14,55,28.30
2013,07,16,14,56,28.20
2013,07,16,14,57,28.20
2013,07,16,14,58,28.10
2013,07,16,14,59,28.10
2013,07,16,15,00,28.00
2013,07,16,15,01,28.00
2013,07,16,15,02,28.00
2013,07,16,15,03,28.10
2013,07,16,15,04,28.10
2013,07,16,15,05,28.10
2013,07,16,15,06,28.10
2013,07,16,15,07,28.10
2013,07,16,15,08,28.20
2013,07,16,15,09,28.20
2013,07,16,15,10,28.20
2013,07,16,15,11,28.30
2013,07,16,15,12,28.20
2013,07,16,15,13,28.20
2013,07,16,15,14,28.20
2013,07,16,15,15,28.10
2013,07,16,15,16,28.00
2013,07,16,15,17,27.90
2013,07,16,15,18,27.80
2013,07,16,15,19,27.70
2013,07,16,15,20,27.60
2013,07,16,15,21,27.60
2013,07,16,15,22,27.60
2013,07,16,15,23,27.50
2013,07,16,15,24,27.50
2013,07,16,15,25,27.40
2013,07,16,15,26,27.40
2013,07,16,15,27,27.30
2013,07,16,15,28,27.30
2013,07,16,15,29,27.20
2013,07,16,15,30,27.20
2013,07,16,15,31,27.30
2013,07,16,15,32,27.30
2013,07,16,15,33,27.30
2013,07,16,15,34,27.40
2013,07,16,15,35,27.40
2013,07,16,15,36,27.50
2013,07,16,15,37,27.50
2013,07,16,15,38,27.60
2013,07,16,15,39,27.70
2013,07,16,15,40,27.80
2013,07,16,15,41,27.80
2013,07,16,15,42,27.90
2013,07,16,15,43,28.00
2013,07,16,15,44,28.10
2013,07,16,15,45,28.10
2013,07,16,15,46,28.20
2013,07,16,15,47,28.30
2013,07,16,15,48,28.40
2013,07,16,15,49,28.40
2013,07,16,15,50,28.50
2013,07,16,15,51,28.50
2013,07,16,15,52,28.50
2013,07,16,15,53,28.40
2013,07,16,15,54,28.40
2013,07,16,15,55,28.40
2013,07,16,15,56,28.40
2013,07,16,15,57,28.40
2013,07,16,15,58,28.40
2013,07,16,15,59,28.40
2013,07,16,16,00,28.40
2013,07,16,16,01,28.40
2013,07,16,16,02,28.40
2013,07,16,16,03,28.40
2013,07,16,16,04,28.40
2013,07,16,16,05,28.50
2013,07,16,16,06,28.50
2013,07,16,16,07,28.50
2013,07,16,16,08,28.50
2013,07,16,16,09,28.50
2013,07,16,16,10,28.50
2013,07,16,16,11,28.40
2013,07,16,16,12,28.40
2013,07,16,16,13,28.40
2013,07,16,16,14,28.30
2013,07,16,16,15,28.30
2013,07,16,16,16,28.30
2013,07,16,16,17,28.40
2013,07,16,16,18,28.40
2013,07,16,16,19,28.30
2013,07,16,16,20,28.30
2013,07,16,16,21,28.20
2013,07,16,16,22,28.20
2013,07,16,16,23,28.20
2013,07,16,16,24,28.20
2013,07,16,16,25,28.20
2013,07,16,16,26,28.20
2013,07,16,16,27,28.20
2013,07,16,16,28,28.20
2013,07,16,16,29,28.20
2013,07,16,16,30,28.10
2013,07,16,16,31,28.10
2013,07,16,16,32,28.00
2013,07,16,16,33,28.00
2013,07,16,16,34,27.90
2013,07,16,16,35,27.90
2013,07,16,16,36,27.90
2013,07,16,16,37,27.90
2013,07,16,16,38,27.90
2013,07,16,16,39,27.80
2013,07,16,16,40,27.80
2013,07,16,16,41,27.70
2013,07,16,16,42,27.70
2013,07,16,16,43,27.70
2013,07,16,16,44,27.60
2013,07,16,16,45,27.60
2013,07,16,16,46,27.60
2013,07,16,16,47,27.60
2013,07,16,16,48,27.50
2013,07,16,16,49,27.50
2013,07,16,16,50,27.50
2013,07,16,16,51,27.60
2013,07,16,16,52,27.60
2013,07,16,16,53,27.60
2013,07,16,16,54,27.60
2013,07,16,16,55,27.60
2013,07,16,16,56,27.60
2013,07,16,16,57,27.60
2013,07,16,16,58,27.60
2013,07,16,16,59,27.60
2013,07,16,17,00,27.60
2013,07,16,17,01,27.60
2013,07,16,17,02,27.60
2013,07,16,17,03,27.60
2013,07,16,17,04,27.60
2013,07,16,17,05,27.60
2013,07,16,17,06,27.50
2013,07,16,17,07,27.50
2013,07,16,17,08,27.50
2013,07,16,17,09,27.50
2013,07,16,17,10,27.50
2013,07,16,17,11,27.50
2013,07,16,17,12,27.50
2013,07,16,17,13,27.50
2013,07,16,17,14,27.50
2013,07,16,17,15,27.40
2013,07,16,17,16,27.40
2013,07,16,17,17,27.50
2013,07,16,17,18,27.50
2013,07,16,17,19,27.50